Location: New York
(40.7127°N, 74.0060°W)
Time: 06:00:21
(UTC-04:00)

Envisat - Visible Passes

Search period start: 03 October 2024 00:00
Search period end: 13 October 2024 00:00
Orbit: 762 x 764 km, 98.3° (Epoch: 02 October)

Date Brightness Start Highest point End Pass type
(mag) Time Alt. Az. Time Alt. Az. Time Alt. Az.
03 Oct 4.5 03:50:00 10° NNE 03:52:50 33° NE 03:52:50 33° NE visible
03 Oct 4.6 05:30:17 10° NNW 05:32:58 17° NW 05:32:58 17° NW visible
04 Oct 5.5 03:13:08 10° NE 03:14:47 18° NE 03:14:47 18° NE visible
04 Oct 4.1 04:51:45 10° N 04:54:56 30° NW 04:54:56 30° NW visible
05 Oct 4.1 04:13:57 10° N 04:16:53 36° N 04:16:53 36° N visible
05 Oct 5.0 05:56:46 10° NW 05:57:01 10° WNW 05:57:01 10° WNW visible
06 Oct 5.0 03:36:40 10° NNE 03:38:50 24° NE 03:38:50 24° NE visible
06 Oct 4.5 05:16:20 10° NNW 05:18:59 20° NW 05:18:59 20° NW visible
07 Oct 5.9 03:00:08 10° NE 03:00:47 12° NE 03:00:47 12° NE visible
07 Oct 4.2 04:38:07 10° N 04:40:56 30° NNW 04:40:56 30° NNW visible
08 Oct 4.6 04:00:29 10° NNE 04:02:53 28° NNE 04:02:53 28° NNE visible
08 Oct 4.9 05:41:26 10° NNW 05:43:01 13° NW 05:43:01 13° NW visible
09 Oct 5.5 03:23:24 10° NNE 03:24:50 18° NE 03:24:50 18° NE visible
09 Oct 4.4 05:02:30 10° N 05:04:58 23° NNW 05:04:58 23° NNW visible
10 Oct 4.4 04:24:31 10° N 04:26:54 28° N 04:26:54 28° N visible
11 Oct 5.1 03:47:04 10° NNE 03:48:51 22° NNE 03:48:51 22° NNE visible
11 Oct 4.8 05:27:14 10° NNW 05:28:59 16° NW 05:28:59 16° NW visible
12 Oct 5.9 03:10:15 10° NE 03:10:47 12° NE 03:10:47 12° NE visible
12 Oct 4.5 04:48:46 10° N 04:50:55 23° NNW 04:50:55 23° NNW visible
